Аэропорт
Магадан (UHMM)

 UHMM / GDX
ЗЦ Хабаровск
Магадан (UHMM)
Магадан (UHMM)
 59.91100, 150.72000  / 574 ft

 UHMM 310930Z 00000MPS 9999 NSC M13/M15 Q1001 R10/92//50 NOSIG RMK QFE736
 TAF UHMM 310750Z 3109/0115 24005MPS 9999 SCT040 TEMPO 3110/3122 08003MPS 1000 BR VV006
UHMM_AIP_1910
показать схемы
Название сценария Тип сценария Flight Simulator 9 Flight Simulator X Prepar3D v2 Prepar3D v3 Prepar3D v4 xPlane
"Welcome to Kolyma" UHMM for P3Dv4 by Shestenko Sergey Vladimirovich платный
uhmm-scenery-fs9-0811 бесплатный
UHMM_FSX_1.01 Andrew Bolowin бесплатный


2020 © VATRUS division (Privacy Policy)